Regional Weather Roundup
Issued by NWS

Home | Current Version | Previous Version | Text Only | Print | Product List | Glossary On
Versions: 1 2 3 4 5 6 7 8 9 10 11 12 13 14 15 16 17 18 19 20 21 22 23 24 25 26 27 28 29 30 31 32 33 34 35 36 37 38 39 40 41 42 43 44 45 46 47 48 49 50
000
ASUS44 KBMX 242110
RWRAL

ALABAMA REGIONAL WEATHER ROUNDUP
NATIONAL WEATHER SERVICE BIRMINGHAM AL
400 PM CDT SUN MAY 24 2015

NOTE: "FAIR" INDICATES FEW OR NO CLOUDS BELOW 12,000 FEET
WITH NO SIGNIFICANT WEATHER AND/OR OBSTRUCTIONS TO VISIBILITY.

THE REMARK "TC" DENOTES TEMPERATURE IN DEGREES CELSIUS.

ALZ001>011-014-016>018-020-242200-
NORTH ALABAMA

CITY           SKY/WX    TMP DP  RH WIND       PRES   REMARKS
MUSCLE SHOALS  MOSUNNY   84  67  56 S18G24    30.11F
HUNTSVILLE     PTSUNNY   85  65  51 SE16G26   30.14F
DECATUR        PTSUNNY   79  68  69 SE10      30.14F
HALEYVILLE     FAIR      81  70  69 SE14G23   30.15F
GADSDEN        PTSUNNY  N/A N/A N/A SE13      30.16F
$$

ALZ012-013-022-023-030>036-040>044-242200-
WEST CENTRAL ALABAMA

CITY           SKY/WX    TMP DP  RH WIND       PRES   REMARKS
TUSCALOOSA     TSTM      72  68  87 S9        30.13R FOG
$$

ALZ015-024>027-033>036-040>044-242200-
CENTRAL ALABAMA

CITY           SKY/WX    TMP DP  RH WIND       PRES   REMARKS
BIRMINGHAM     PTSUNNY   81  67  62 SE9       30.17F
MONTGOMERY     PTSUNNY   84  70  61 E8        30.13F
SHELBY CO ARPT LGT RAIN  80  68  66 E7        30.15F
MAXWELL AFB    PTSUNNY   86  69  57 SE12G22   30.12  HX  90
GREENVILLE     FAIR      77  72  83 CALM      30.13S
$$

ALZ019-021-028-029-037-038-045>048-242200-
EAST CENTRAL ALABAMA

CITY           SKY/WX    TMP DP  RH WIND       PRES   REMARKS
ANNISTON       SUNNY     82  65  56 E12       30.18F
ALEXANDER CITY MOSUNNY   82  64  53 SE8       30.18F
AUBURN         MOSUNNY   81  63  54 E12       30.20F
$$

ALZ051>064-242200-
SOUTHWEST ALABAMA

CITY           SKY/WX    TMP DP  RH WIND       PRES   REMARKS
MOBILE         PTSUNNY   81  75  82 SE16      30.10F
BROOKLEY FIELD MOSUNNY   84  74  71 SE17G28   30.10F HX  91
EVERGREEN      CLOUDY    81  73  76 SE9       30.12F
$$

ALZ049-050-065>069-242200-
SOUTHEAST ALABAMA

CITY           SKY/WX    TMP DP  RH WIND       PRES   REMARKS
DOTHAN         MOSUNNY   88  66  48 SE13      30.17F HX  90
OZARK          PTSUNNY   86  67  52 SE8       30.13F
TROY           MOSUNNY   86  68  54 SE9       30.14F
EUFAULA        FAIR      90  66  45 E10       30.15F HX  92
$$



USA.gov is the U.S. government's official web portal to all federal, state and local government web resources and services.